Ely, NV

11:15 AM PDT on May 22, 2018 (GMT -0700)
Ely

Weather History for KELY - March, 2014

Change the Weather History Date:

Tuesday, March 11, 2014

  Actual Average Record
Temperature  
Mean Temperature 31 °F 35 °F  
Max Temperature 41 °F 49 °F 66 °F (1989)
Min Temperature 21 °F 22 °F -5 °F (1969)
Degree Days  
Heating Degree Days 34 30  
Month to date heating degree days 279 340  
Since 1 July heating degree days 5298 5677  
Cooling Degree Days 0 0  
Month to date cooling degree days 0 0  
Year to date cooling degree days 0 0  
Moisture  
Dew Point 19 °F    
Average Humidity 56    
Maximum Humidity 78    
Minimum Humidity 33    
Precipitation  
Precipitation T in 0.03 in 0.32 in (1973)
Month to date precipitation 0.07 0.32  
Year to date precipitation 1.80 1.77  
Snow  
Snow T in 0.30 in 4.50 in (1990)
Month to date snowfall 0.6 3.0  
Since 1 July snowfall 39.7 37.9  
Snow Depth 0.00 in    
Sea Level Pressure  
Sea Level Pressure 30.23 in    
Wind  
Wind Speed 11 mph (North)    
Max Wind Speed 25 mph    
Max Gust Speed 31 mph    
Visibility 10 miles    
Events Snow    
T = Trace of Precipitation, MM = Missing Value Source: NWS Daily Summary

Daily Weather History Graph

Daily Weather History Graph

Search for Another Location

Airport or City:

Astronomy

Mar. 11, 2014 Rise Set
Actual Time 6:56 AM PDT 6:42 PM PDT
Civil Twilight 6:30 AM PDT 7:09 PM PDT
Nautical Twilight 5:59 AM PDT 7:40 PM PDT
Astronomical Twilight 5:27 AM PDT 8:11 PM PDT
Moon 2:23 PM PDT (3/11) 3:51 AM PDT (3/11)
Length of Visible Light 12h 38m
Length of Day
11h 45m
Waxing Gibbous, 79% of the Moon is Illuminated
Mar 11
Waxing Gibbous
Mar 16
Full
Mar 23
Last Quarter
Mar 30
New
Apr 7
First Quarter

Hourly Weather History & Observations

Time (PDT) Temp. Windchill Dew Point Humidity Pressure Visibility Wind Dir Wind Speed Gust Speed Precip Events Conditions
12:53 AM 30.0 °F 20.5 °F 25.0 °F 82% 30.09 in 2.5 mi WNW 11.5 mph - 0.00 in Snow Light Snow
1:10 AM 30.0 °F 19.1 °F 26.1 °F 85% 30.18 in 9.0 mi NW 15.0 mph 20.7 mph 0.00 in   Overcast
1:53 AM 28.9 °F 21.9 °F 21.9 °F 75% 30.11 in 10.0 mi North 6.9 mph - 0.00 in   Clear
2:53 AM 27.0 °F 18.7 °F 19.9 °F 75% 30.12 in 10.0 mi ENE 8.1 mph - N/A   Clear
3:53 AM 28.0 °F 22.8 °F 18.0 °F 66% 30.12 in 10.0 mi NNW 4.6 mph - N/A   Scattered Clouds
4:53 AM 27.0 °F 19.5 °F 17.1 °F 66% 30.13 in 10.0 mi North 6.9 mph - N/A   Partly Cloudy
5:53 AM 25.0 °F - 17.1 °F 72% 30.18 in 10.0 mi Calm Calm - N/A   Partly Cloudy
6:53 AM 23.0 °F 14.7 °F 16.0 °F 74% 30.22 in 10.0 mi NW 6.9 mph - N/A   Partly Cloudy
7:53 AM 26.1 °F 21.9 °F 18.0 °F 71% 30.24 in 10.0 mi NE 3.5 mph - N/A   Partly Cloudy
8:53 AM 30.0 °F 23.2 °F 17.1 °F 59% 30.26 in 10.0 mi NNE 6.9 mph - N/A   Mostly Cloudy
9:53 AM 33.1 °F 24.9 °F 16.0 °F 50% 30.25 in 10.0 mi NNE 10.4 mph - N/A   Clear
10:53 AM 35.1 °F 26.9 °F 15.1 °F 44% 30.26 in 10.0 mi North 11.5 mph 17.3 mph N/A   Scattered Clouds
11:53 AM 37.9 °F 29.2 °F 15.1 °F 39% 30.25 in 10.0 mi North 15.0 mph 24.2 mph N/A   Partly Cloudy
12:53 PM 39.9 °F 31.4 °F 14.0 °F 35% 30.23 in 2.0 mi North 16.1 mph 27.6 mph N/A   Haze
1:06 PM 39.0 °F 29.0 °F 14.0 °F 36% 30.24 in 10.0 mi North 20.7 mph 29.9 mph N/A   Scattered Clouds
1:53 PM 37.9 °F 27.9 °F 12.0 °F 35% 30.23 in 10.0 mi North 19.6 mph 29.9 mph N/A   Mostly Cloudy
2:53 PM 37.0 °F 28.9 °F 14.0 °F 39% 30.26 in 10.0 mi North 12.7 mph 27.6 mph N/A   Overcast
3:53 PM 39.0 °F 29.9 °F 12.9 °F 34% 30.23 in 10.0 mi North 17.3 mph 26.5 mph N/A   Mostly Cloudy
4:53 PM 37.0 °F 29.8 °F 16.0 °F 42% 30.26 in 10.0 mi North 10.4 mph - N/A   Mostly Cloudy
5:53 PM 37.0 °F 27.7 °F 19.0 °F 48% 30.28 in 10.0 mi North 16.1 mph 25.3 mph N/A   Mostly Cloudy
6:53 PM 30.9 °F 20.7 °F 21.9 °F 69% 30.34 in 10.0 mi North 13.8 mph - N/A   Mostly Cloudy
7:53 PM 30.9 °F 19.8 °F 23.0 °F 72% 30.34 in 10.0 mi North 16.1 mph - N/A   Mostly Cloudy
8:53 PM 30.0 °F 21.1 °F 24.1 °F 79% 30.32 in 10.0 mi North 10.4 mph - N/A   Mostly Cloudy
9:53 PM 30.9 °F 20.7 °F 24.1 °F 76% 30.31 in 10.0 mi North 13.8 mph - 0.00 in   Overcast
10:53 PM 30.9 °F 22.2 °F 24.1 °F 76% 30.32 in 10.0 mi NNE 10.4 mph - N/A   Overcast
11:53 PM 30.0 °F 19.5 °F 23.0 °F 75% 30.30 in 10.0 mi North 13.8 mph - N/A   Partly Cloudy